Wetterdaten: Donnerstag, 16.10.2014
Datum Zeit Temp. A. Feuchte A. Luftdruck Regen Wind Richtung Richtung Sonnenschein ET UV Solar Taupunkt Windchill Windben Empfang
16.10.2014 00:00 11,5 C 84 % 1007,2 hPa 0,0 l/m 0,0 km/h (0 Bft) SW 222 0 min 0,000 mm 0,0 UV-I 0 W/m 8,9 C 11,5 C 0,0 km/h (0 Bft) 0,00 %
16.10.2014 00:15 11,5 C 85 % 1006,9 hPa 0,0 l/m 0,0 km/h (0 Bft) SW 221 0 min 0,000 mm 0,0 UV-I 0 W/m 9,1 C 11,5 C 0,0 km/h (0 Bft) 0,00 %
16.10.2014 00:30 11,6 C 85 % 1006,7 hPa 0,0 l/m 0,0 km/h (0 Bft) SW 221 0 min 0,000 mm 0,0 UV-I 0 W/m 9,2 C 11,6 C 0,0 km/h (0 Bft) 0,00 %
16.10.2014 00:45 11,6 C 85 % 1006,7 hPa 0,3 l/m 0,0 km/h (0 Bft) SW 221 0 min 0,000 mm 0,0 UV-I 0 W/m 9,2 C 11,6 C 0,0 km/h (0 Bft) 0,00 %
16.10.2014 01:00 11,5 C 86 % 1006,9 hPa 0,0 l/m 0,0 km/h (0 Bft) SW 221 0 min 0,000 mm 0,0 UV-I 0 W/m 9,2 C 11,5 C 0,0 km/h (0 Bft) 0,00 %
16.10.2014 01:15 11,4 C 86 % 1006,9 hPa 0,0 l/m 0,0 km/h (0 Bft) SW 221 0 min 0,000 mm 0,0 UV-I 0 W/m 9,1 C 11,4 C 0,0 km/h (0 Bft) 0,00 %
16.10.2014 01:30 11,3 C 86 % 1007,0 hPa 0,0 l/m 0,0 km/h (0 Bft) SW 221 0 min 0,000 mm 0,0 UV-I 0 W/m 9,0 C 11,3 C 0,0 km/h (0 Bft) 0,00 %
16.10.2014 01:45 11,3 C 86 % 1006,8 hPa 0,0 l/m 0,0 km/h (0 Bft) SW 221 0 min 0,000 mm 0,0 UV-I 0 W/m 9,0 C 11,3 C 0,0 km/h (0 Bft) 0,00 %
16.10.2014 02:00 11,3 C 86 % 1007,2 hPa 0,0 l/m 0,0 km/h (0 Bft) SW 221 0 min 0,000 mm 0,0 UV-I 0 W/m 9,0 C 11,3 C 0,0 km/h (0 Bft) 0,00 %
16.10.2014 02:15 11,2 C 86 % 1007,4 hPa 0,0 l/m 0,0 km/h (0 Bft) SW 221 0 min 0,000 mm 0,0 UV-I 0 W/m 8,9 C 11,2 C 0,0 km/h (0 Bft) 0,00 %
16.10.2014 02:30 11,2 C 86 % 1007,4 hPa 0,0 l/m 0,0 km/h (0 Bft) SW 221 0 min 0,000 mm 0,0 UV-I 0 W/m 8,9 C 11,2 C 0,0 km/h (0 Bft) 0,00 %
16.10.2014 02:45 11,2 C 86 % 1007,4 hPa 0,0 l/m 0,0 km/h (0 Bft) SW 221 0 min 0,000 mm 0,0 UV-I 0 W/m 8,9 C 11,2 C 0,0 km/h (0 Bft) 0,00 %
16.10.2014 03:00 11,2 C 86 % 1007,3 hPa 0,0 l/m 0,0 km/h (0 Bft) SW 221 0 min 0,000 mm 0,0 UV-I 0 W/m 8,9 C 11,2 C 0,0 km/h (0 Bft) 0,00 %
16.10.2014 03:15 11,2 C 86 % 1007,5 hPa 0,0 l/m 0,0 km/h (0 Bft) SW 221 0 min 0,000 mm 0,0 UV-I 0 W/m 8,9 C 11,2 C 0,0 km/h (0 Bft) 0,00 %
16.10.2014 03:30 11,2 C 86 % 1007,6 hPa 0,0 l/m 0,0 km/h (0 Bft) SW 221 0 min 0,000 mm 0,0 UV-I 0 W/m 8,9 C 11,2 C 0,0 km/h (0 Bft) 0,00 %
16.10.2014 03:45 11,3 C 85 % 1007,5 hPa 0,0 l/m 0,0 km/h (0 Bft) SW 221 0 min 0,000 mm 0,0 UV-I 0 W/m 8,9 C 11,3 C 0,0 km/h (0 Bft) 0,00 %
16.10.2014 04:00 11,4 C 86 % 1007,2 hPa 0,0 l/m 0,0 km/h (0 Bft) SW 221 0 min 0,000 mm 0,0 UV-I 0 W/m 9,1 C 11,4 C 0,0 km/h (0 Bft) 0,00 %
16.10.2014 04:15 11,6 C 86 % 1007,3 hPa 0,0 l/m 0,0 km/h (0 Bft) SW 221 0 min 0,000 mm 0,0 UV-I 0 W/m 9,3 C 11,6 C 0,0 km/h (0 Bft) 0,00 %
16.10.2014 04:30 11,6 C 85 % 1007,3 hPa 0,0 l/m 0,0 km/h (0 Bft) SW 221 0 min 0,000 mm 0,0 UV-I 0 W/m 9,2 C 11,6 C 0,0 km/h (0 Bft) 0,00 %
16.10.2014 04:45 11,5 C 86 % 1007,4 hPa 0,0 l/m 0,0 km/h (0 Bft) O-SO 121 0 min 0,000 mm 0,0 UV-I 0 W/m 9,2 C 11,5 C 0,0 km/h (0 Bft) 0,00 %
16.10.2014 05:00 11,4 C 86 % 1007,7 hPa 0,0 l/m 0,0 km/h (0 Bft) SO 131 0 min 0,000 mm 0,0 UV-I 0 W/m 9,1 C 11,4 C 0,0 km/h (0 Bft) 0,00 %
16.10.2014 05:15 11,4 C 85 % 1007,4 hPa 0,0 l/m 0,0 km/h (0 Bft) O-SO 121 0 min 0,000 mm 0,0 UV-I 0 W/m 9,0 C 11,4 C 0,0 km/h (0 Bft) 0,00 %
16.10.2014 05:30 11,4 C 86 % 1007,5 hPa 0,0 l/m 0,0 km/h (0 Bft) W-SW 251 0 min 0,000 mm 0,0 UV-I 0 W/m 9,1 C 11,4 C 0,0 km/h (0 Bft) 0,00 %
16.10.2014 05:45 11,3 C 86 % 1007,7 hPa 0,0 l/m 0,0 km/h (0 Bft) S 174 0 min 0,000 mm 0,0 UV-I 0 W/m 9,0 C 11,3 C 0,0 km/h (0 Bft) 0,00 %
16.10.2014 06:00 11,3 C 86 % 1007,7 hPa 0,0 l/m 0,0 km/h (0 Bft) S 174 0 min 0,000 mm 0,0 UV-I 0 W/m 9,0 C 11,3 C 0,0 km/h (0 Bft) 0,00 %
16.10.2014 06:15 11,2 C 86 % 1007,6 hPa 0,0 l/m 0,0 km/h (0 Bft) S-SW 205 0 min 0,000 mm 0,0 UV-I 0 W/m 8,9 C 11,2 C 0,0 km/h (0 Bft) 0,00 %
16.10.2014 06:30 11,2 C 86 % 1007,7 hPa 0,0 l/m 0,0 km/h (0 Bft) S-SW 195 0 min 0,000 mm 0,0 UV-I 0 W/m 8,9 C 11,2 C 0,0 km/h (0 Bft) 0,00 %
16.10.2014 06:45 11,2 C 86 % 1007,8 hPa 0,0 l/m 0,0 km/h (0 Bft) S-SW 195 0 min 0,000 mm 0,0 UV-I 0 W/m 8,9 C 11,2 C 0,0 km/h (0 Bft) 0,00 %
16.10.2014 07:00 11,2 C 87 % 1007,9 hPa 0,0 l/m 0,0 km/h (0 Bft) S-SW 195 0 min 0,000 mm 0,0 UV-I 0 W/m 9,1 C 11,2 C 0,0 km/h (0 Bft) 0,00 %
16.10.2014 07:15 11,2 C 87 % 1008,0 hPa 0,0 l/m 0,0 km/h (0 Bft) S-SW 195 0 min 0,000 mm 0,0 UV-I 0 W/m 9,1 C 11,2 C 0,0 km/h (0 Bft) 0,00 %
16.10.2014 07:30 11,3 C 87 % 1008,0 hPa 0,0 l/m 0,0 km/h (0 Bft) S-SW 193 0 min 0,000 mm 0,0 UV-I 0 W/m 9,2 C 11,3 C 0,0 km/h (0 Bft) 0,00 %
16.10.2014 07:45 11,4 C 86 % 1008,0 hPa 0,0 l/m 0,0 km/h (0 Bft) S 190 0 min 0,000 mm 0,0 UV-I 3 W/m 9,1 C 11,4 C 0,0 km/h (0 Bft) 0,00 %
16.10.2014 08:00 11,5 C 86 % 1007,8 hPa 0,0 l/m 0,0 km/h (0 Bft) S 190 0 min 0,000 mm 0,0 UV-I 22 W/m 9,2 C 11,5 C 0,0 km/h (0 Bft) 0,00 %
16.10.2014 08:15 11,7 C 86 % 1008,0 hPa 0,3 l/m 0,0 km/h (0 Bft) S 190 0 min 0,000 mm 1,0 UV-I 24 W/m 9,4 C 11,7 C 0,0 km/h (0 Bft) 0,00 %
16.10.2014 08:30 12,5 C 86 % 1008,0 hPa 0,0 l/m 0,0 km/h (0 Bft) S 190 0 min 0,000 mm 1,0 UV-I 81 W/m 10,2 C 12,5 C 0,0 km/h (0 Bft) 0,00 %
16.10.2014 08:45 13,1 C 85 % 1008,1 hPa 0,0 l/m 0,0 km/h (0 Bft) SW 216 15 min 0,000 mm 1,0 UV-I 116 W/m 10,6 C 13,1 C 0,0 km/h (0 Bft) 0,00 %
16.10.2014 09:00 13,7 C 82 % 1008,2 hPa 0,0 l/m 0,0 km/h (0 Bft) SW 217 0 min 0,000 mm 1,0 UV-I 83 W/m 10,7 C 13,7 C 0,0 km/h (0 Bft) 0,00 %
16.10.2014 09:15 13,7 C 81 % 1008,2 hPa 0,0 l/m 0,0 km/h (0 Bft) SW 216 0 min 0,000 mm 1,0 UV-I 100 W/m 10,5 C 13,7 C 0,0 km/h (0 Bft) 0,00 %
16.10.2014 09:30 13,5 C 81 % 1008,5 hPa 0,0 l/m 0,0 km/h (0 Bft) S 180 0 min 0,000 mm 1,0 UV-I 95 W/m 10,3 C 13,5 C 0,0 km/h (0 Bft) 0,00 %
16.10.2014 09:45 13,8 C 81 % 1008,6 hPa 0,0 l/m 0,0 km/h (0 Bft) S 185 0 min 0,000 mm 1,0 UV-I 81 W/m 10,6 C 13,8 C 0,0 km/h (0 Bft) 0,00 %
16.10.2014 10:00 14,0 C 81 % 1008,7 hPa 0,0 l/m 0,0 km/h (0 Bft) SW 217 0 min 0,000 mm 1,0 UV-I 76 W/m 10,8 C 14,0 C 0,0 km/h (0 Bft) 0,00 %
16.10.2014 10:15 14,0 C 81 % 1009,1 hPa 0,0 l/m 0,0 km/h (0 Bft) W-SW 255 0 min 0,000 mm 1,0 UV-I 60 W/m 10,8 C 14,0 C 0,0 km/h (0 Bft) 0,00 %
16.10.2014 10:30 13,7 C 81 % 1009,4 hPa 0,3 l/m 0,0 km/h (0 Bft) W-SW 253 0 min 0,000 mm 1,0 UV-I 71 W/m 10,5 C 13,7 C 0,0 km/h (0 Bft) 0,00 %
16.10.2014 10:45 13,8 C 82 % 1009,6 hPa 0,0 l/m 0,0 km/h (0 Bft) W-SW 251 0 min 0,000 mm 1,0 UV-I 106 W/m 10,8 C 13,8 C 0,0 km/h (0 Bft) 0,00 %
16.10.2014 11:00 13,9 C 81 % 1009,1 hPa 0,0 l/m 0,0 km/h (0 Bft) S 188 0 min 0,000 mm 1,0 UV-I 100 W/m 10,7 C 13,9 C 0,0 km/h (0 Bft) 0,00 %
16.10.2014 11:15 14,6 C 77 % 1008,7 hPa 0,0 l/m 0,0 km/h (0 Bft) N 350 0 min 0,000 mm 2,0 UV-I 198 W/m 10,6 C 14,6 C 0,0 km/h (0 Bft) 0,00 %
16.10.2014 11:30 15,3 C 74 % 1008,6 hPa 0,0 l/m 1,4 km/h (1 Bft) O-SO 113 0 min 0,000 mm 2,0 UV-I 173 W/m 10,7 C 15,3 C 4,0 km/h (1 Bft) 0,00 %
16.10.2014 11:45 15,4 C 74 % 1008,7 hPa 0,0 l/m 0,0 km/h (0 Bft) SO 144 0 min 0,000 mm 2,0 UV-I 165 W/m 10,8 C 15,4 C 0,0 km/h (0 Bft) 0,00 %
16.10.2014 12:00 15,8 C 73 % 1008,4 hPa 0,0 l/m 0,7 km/h (0 Bft) N 355 0 min 0,000 mm 2,0 UV-I 166 W/m 11,0 C 15,8 C 4,0 km/h (1 Bft) 0,00 %
16.10.2014 12:15 16,3 C 71 % 1008,3 hPa 0,0 l/m 0,4 km/h (0 Bft) W-SW 251 0 min 0,000 mm 2,0 UV-I 248 W/m 11,0 C 16,3 C 4,0 km/h (1 Bft) 0,00 %
16.10.2014 12:30 16,6 C 68 % 1008,2 hPa 0,0 l/m 0,4 km/h (0 Bft) W 264 0 min 0,000 mm 3,0 UV-I 218 W/m 10,7 C 16,6 C 4,0 km/h (1 Bft) 0,00 %
16.10.2014 12:45 17,2 C 68 % 1007,3 hPa 0,0 l/m 0,0 km/h (0 Bft) W-SW 240 0 min 0,000 mm 2,0 UV-I 126 W/m 11,2 C 17,2 C 0,0 km/h (0 Bft) 0,00 %
16.10.2014 13:00 17,4 C 66 % 1007,9 hPa 0,0 l/m 0,0 km/h (0 Bft) SW 230 0 min 0,000 mm 2,0 UV-I 243 W/m 11,0 C 17,4 C 0,0 km/h (0 Bft) 0,00 %
16.10.2014 13:15 17,6 C 66 % 1007,5 hPa 0,0 l/m 0,7 km/h (0 Bft) W-SW 253 0 min 0,000 mm 3,0 UV-I 177 W/m 11,2 C 17,6 C 4,0 km/h (1 Bft) 0,00 %
16.10.2014 13:30 17,9 C 66 % 1007,2 hPa 0,0 l/m 0,0 km/h (0 Bft) S 180 0 min 0,000 mm 3,0 UV-I 249 W/m 11,5 C 17,9 C 0,0 km/h (0 Bft) 0,00 %
16.10.2014 13:45 18,2 C 64 % 1007,0 hPa 0,0 l/m 0,0 km/h (0 Bft) SW 222 0 min 0,000 mm 2,0 UV-I 221 W/m 11,3 C 18,2 C 0,0 km/h (0 Bft) 0,00 %
16.10.2014 14:00 18,7 C 62 % 1006,8 hPa 0,0 l/m 0,0 km/h (0 Bft) S 188 0 min 0,000 mm 2,0 UV-I 230 W/m 11,3 C 18,7 C 0,0 km/h (0 Bft) 0,00 %
16.10.2014 14:15 18,8 C 63 % 1006,8 hPa 0,0 l/m 0,0 km/h (0 Bft) W-SW 256 0 min 0,000 mm 2,0 UV-I 160 W/m 11,6 C 18,8 C 0,0 km/h (0 Bft) 0,00 %
16.10.2014 14:30 18,7 C 62 % 1007,1 hPa 0,0 l/m 0,0 km/h (0 Bft) SW 231 0 min 0,000 mm 1,0 UV-I 118 W/m 11,3 C 18,7 C 0,0 km/h (0 Bft) 0,00 %
16.10.2014 14:45 17,7 C 65 % 1007,5 hPa 0,0 l/m 0,0 km/h (0 Bft) W-SW 239 0 min 0,000 mm 1,0 UV-I 225 W/m 11,0 C 17,7 C 0,0 km/h (0 Bft) 0,00 %
16.10.2014 15:00 18,3 C 63 % 1006,6 hPa 0,0 l/m 0,0 km/h (0 Bft) S-SW 198 0 min 0,000 mm 2,0 UV-I 210 W/m 11,1 C 18,3 C 0,0 km/h (0 Bft) 0,00 %
16.10.2014 15:15 18,9 C 62 % 1006,6 hPa 0,0 l/m 0,0 km/h (0 Bft) W-SW 241 0 min 0,000 mm 2,0 UV-I 203 W/m 11,5 C 18,9 C 0,0 km/h (0 Bft) 0,00 %
16.10.2014 15:30 19,4 C 61 % 1006,2 hPa 0,0 l/m 0,0 km/h (0 Bft) SO 141 0 min 0,000 mm 2,0 UV-I 151 W/m 11,7 C 19,4 C 0,0 km/h (0 Bft) 0,00 %
16.10.2014 15:45 18,8 C 58 % 1006,2 hPa 0,0 l/m 0,0 km/h (0 Bft) O-SO 111 0 min 0,000 mm 1,0 UV-I 163 W/m 10,4 C 18,8 C 0,0 km/h (0 Bft) 0,00 %
16.10.2014 16:00 18,6 C 61 % 1006,3 hPa 0,0 l/m 0,0 km/h (0 Bft) S-SW 193 0 min 0,000 mm 1,0 UV-I 148 W/m 10,9 C 18,6 C 0,0 km/h (0 Bft) 0,00 %
16.10.2014 16:15 18,8 C 62 % 1006,8 hPa 0,0 l/m 0,0 km/h (0 Bft) S 185 0 min 0,000 mm 1,0 UV-I 124 W/m 11,4 C 18,8 C 0,0 km/h (0 Bft) 0,00 %
16.10.2014 16:30 18,3 C 63 % 1007,0 hPa 0,0 l/m 0,0 km/h (0 Bft) S-SW 210 0 min 0,000 mm 1,0 UV-I 77 W/m 11,1 C 18,3 C 0,0 km/h (0 Bft) 0,00 %
16.10.2014 16:45 18,0 C 63 % 1007,4 hPa 0,0 l/m 0,0 km/h (0 Bft) SW 223 0 min 0,000 mm 1,0 UV-I 55 W/m 10,8 C 18,0 C 0,0 km/h (0 Bft) 0,00 %
16.10.2014 17:00 17,4 C 66 % 1007,4 hPa 0,0 l/m 0,0 km/h (0 Bft) S 180 0 min 0,000 mm 0,0 UV-I 32 W/m 11,0 C 17,4 C 0,0 km/h (0 Bft) 0,00 %
16.10.2014 17:15 17,2 C 68 % 1007,5 hPa 0,0 l/m 0,0 km/h (0 Bft) S 179 0 min 0,000 mm 0,0 UV-I 24 W/m 11,2 C 17,2 C 0,0 km/h (0 Bft) 0,00 %
16.10.2014 17:30 16,8 C 69 % 1007,7 hPa 0,0 l/m 0,0 km/h (0 Bft) S 179 0 min 0,000 mm 0,0 UV-I 0 W/m 11,1 C 16,8 C 0,0 km/h (0 Bft) 0,00 %
16.10.2014 17:45 16,5 C 74 % 1007,7 hPa 0,0 l/m 0,0 km/h (0 Bft) S 178 0 min 0,000 mm 0,0 UV-I 0 W/m 11,8 C 16,5 C 0,0 km/h (0 Bft) 0,00 %
16.10.2014 18:00 16,1 C 77 % 1007,7 hPa 0,0 l/m 0,0 km/h (0 Bft) S 174 0 min 0,000 mm 0,0 UV-I 0 W/m 12,1 C 16,1 C 0,0 km/h (0 Bft) 0,00 %
16.10.2014 18:15 15,8 C 79 % 1007,9 hPa 0,3 l/m 0,0 km/h (0 Bft) S 174 0 min 0,000 mm 0,0 UV-I 0 W/m 12,2 C 15,8 C 0,0 km/h (0 Bft) 0,00 %
16.10.2014 18:30 15,5 C 80 % 1007,9 hPa 0,0 l/m 0,0 km/h (0 Bft) SW 227 0 min 0,000 mm 0,0 UV-I 0 W/m 12,1 C 15,5 C 0,0 km/h (0 Bft) 0,00 %
16.10.2014 18:45 15,2 C 81 % 1008,4 hPa 0,0 l/m 0,0 km/h (0 Bft) S 183 0 min 0,000 mm 0,0 UV-I 0 W/m 12,0 C 15,2 C 0,0 km/h (0 Bft) 0,00 %
16.10.2014 19:00 15,1 C 81 % 1008,4 hPa 0,0 l/m 0,0 km/h (0 Bft) S-SW 193 0 min 0,000 mm 0,0 UV-I 0 W/m 11,9 C 15,1 C 0,0 km/h (0 Bft) 0,00 %
16.10.2014 19:15 15,0 C 81 % 1008,7 hPa 0,0 l/m 0,0 km/h (0 Bft) S 186 0 min 0,000 mm 0,0 UV-I 0 W/m 11,8 C 15,0 C 0,0 km/h (0 Bft) 0,00 %
16.10.2014 19:30 14,8 C 82 % 1009,1 hPa 0,0 l/m 0,0 km/h (0 Bft) S-SW 196 0 min 0,000 mm 0,0 UV-I 0 W/m 11,8 C 14,8 C 0,0 km/h (0 Bft) 0,00 %
16.10.2014 19:45 14,8 C 81 % 1008,9 hPa 0,0 l/m 0,0 km/h (0 Bft) S 183 0 min 0,000 mm 0,0 UV-I 0 W/m 11,6 C 14,8 C 0,0 km/h (0 Bft) 0,00 %
16.10.2014 20:00 14,8 C 80 % 1008,8 hPa 0,0 l/m 0,0 km/h (0 Bft) W-SW 253 0 min 0,000 mm 0,0 UV-I 0 W/m 11,4 C 14,8 C 0,0 km/h (0 Bft) 0,00 %
16.10.2014 20:15 14,9 C 80 % 1009,0 hPa 0,0 l/m 0,0 km/h (0 Bft) S 174 0 min 0,000 mm 0,0 UV-I 0 W/m 11,5 C 14,9 C 0,0 km/h (0 Bft) 0,00 %
16.10.2014 20:30 14,9 C 78 % 1009,4 hPa 0,0 l/m 0,0 km/h (0 Bft) NO 43 0 min 0,000 mm 0,0 UV-I 0 W/m 11,1 C 14,9 C 0,0 km/h (0 Bft) 0,00 %
16.10.2014 20:45 15,0 C 76 % 1009,4 hPa 0,0 l/m 0,0 km/h (0 Bft) N-NO 12 0 min 0,000 mm 0,0 UV-I 0 W/m 10,8 C 15,0 C 0,0 km/h (0 Bft) 0,00 %
16.10.2014 21:00 15,2 C 75 % 1009,6 hPa 0,0 l/m 0,0 km/h (0 Bft) NO 40 0 min 0,000 mm 0,0 UV-I 0 W/m 10,8 C 15,2 C 0,0 km/h (0 Bft) 0,00 %
16.10.2014 21:15 15,4 C 72 % 1009,6 hPa 0,0 l/m 0,4 km/h (0 Bft) S 180 0 min 0,000 mm 0,0 UV-I 0 W/m 10,4 C 15,4 C 4,0 km/h (1 Bft) 0,00 %
16.10.2014 21:30 15,4 C 73 % 1009,9 hPa 0,0 l/m 0,4 km/h (0 Bft) NW 319 0 min 0,000 mm 0,0 UV-I 0 W/m 10,6 C 15,4 C 4,0 km/h (1 Bft) 0,00 %
16.10.2014 21:45 15,4 C 73 % 1010,1 hPa 0,0 l/m 1,4 km/h (1 Bft) W-NW 290 0 min 0,000 mm 0,0 UV-I 0 W/m 10,6 C 15,4 C 4,0 km/h (1 Bft) 0,00 %
16.10.2014 22:00 15,1 C 75 % 1010,0 hPa 0,0 l/m 0,0 km/h (0 Bft) S-SW 203 0 min 0,000 mm 0,0 UV-I 0 W/m 10,7 C 15,1 C 0,0 km/h (0 Bft) 0,00 %
16.10.2014 22:15 14,9 C 76 % 1009,9 hPa 0,0 l/m 0,0 km/h (0 Bft) W-SW 256 0 min 0,000 mm 0,0 UV-I 0 W/m 10,7 C 14,9 C 0,0 km/h (0 Bft) 0,00 %
16.10.2014 22:30 14,7 C 77 % 1009,9 hPa 0,0 l/m 0,0 km/h (0 Bft) SW 217 0 min 0,000 mm 0,0 UV-I 0 W/m 10,7 C 14,7 C 0,0 km/h (0 Bft) 0,00 %
16.10.2014 22:45 14,6 C 78 % 1009,9 hPa 0,0 l/m 0,0 km/h (0 Bft) W-SW 250 0 min 0,000 mm 0,0 UV-I 0 W/m 10,8 C 14,6 C 0,0 km/h (0 Bft) 0,00 %
16.10.2014 23:00 14,4 C 79 % 1009,7 hPa 0,0 l/m 0,0 km/h (0 Bft) S 191 0 min 0,000 mm 0,0 UV-I 0 W/m 10,8 C 14,4 C 0,0 km/h (0 Bft) 0,00 %
16.10.2014 23:15 14,5 C 78 % 1009,8 hPa 0,0 l/m 0,0 km/h (0 Bft) S 179 0 min 0,000 mm 0,0 UV-I 0 W/m 10,7 C 14,5 C 0,0 km/h (0 Bft) 0,00 %
16.10.2014 23:30 14,3 C 80 % 1009,9 hPa 0,0 l/m 0,0 km/h (0 Bft) O 86 0 min 0,000 mm 0,0 UV-I 0 W/m 10,9 C 14,3 C 0,0 km/h (0 Bft) 0,00 %
16.10.2014 23:45 14,2 C 81 % 1009,9 hPa 0,0 l/m 0,4 km/h (0 Bft) NO 46 0 min 0,000 mm 0,0 UV-I 0 W/m 11,0 C 14,2 C 4,0 km/h (1 Bft) 0,00 %
_ Min-Zeit 02:15 15:45 15:30 - 00:00 - - - - - - 03:45 02:15 00:00 00:00
Minimum _ 11,2 C 58 % 1006,2 hPa - 0,0 km/h (0 Bft) - - - - - - 8,9 C 11,2 C 0,0 km/h (0 Bft) 0,00 %
_ Max-Zeit 15:30 07:00 21:45 00:45 11:30 - - 08:45 00:00 12:30 13:30 18:15 15:30 11:30 00:00
Maximum _ 19,4 C 87 % 1010,1 hPa 0,3 l/m 1,4 km/h
O-SO (1 Bft)
- - 15 min 0,000 mm 3,0 UV-I 249 W/m 12,2 C 19,4 C 4,0 km/h
O-SO (1 Bft)
0,00 %
Durchschnitt _ 14,3 C 78 % 1008,0 hPa #1,2 l/m 0,1 km/h (0 Bft) O-SO - #15 min. #0,000 mm 1,5 UV-I 131 W/m 10,4 C 14,3 C 0,4 km/h (0 Bft) 0,00 %